パンスターズ彗星

C/2018 P5 ( PanSTARRS )

English version
Home page
Updated on November 9, 2019

---------------------------------------------------------------------

・ プロフィール

発見日 2018年8月11日
発見光度 20.9等
発見者 Pan-STARRS 1 telescope (Haleakala)

・ 写真集

・ 軌道要素

Epoch 2019 Mar. 18.0 TT = JDT 2458560.5
T 2019 Feb. 26.25626 TT                                 Williams
q   4.5758789            (2000.0)            P               Q
n   0.02166368     Peri.  131.63893     +0.97417191     +0.21310188
a  12.7442585      Node   216.24133     -0.22575188     +0.92647917
e   0.6409458      Incl.    7.25683     +0.00501790     +0.31019983
P  45.5
From 75 observations 2018 June 16-2019 Oct. 25, mean residual 0".3.

・ 光度変化

        m1 = 10.2 + 5 logΔ + 10.0 log r(t - 100)

---------------------------------------------------------------------

軌道要素はM.P.E.C. 2019-V116に掲載されたものです。
光度グラフはComet for Windowsで作成したものです。

---------------------------------------------------------------------

Copyright(C) Seiichi Yoshida (comet@aerith.net). All rights reserved.